Weather History for Hamilton Island, QU

Change the Weather History Date:

Thursday, March 27, 2014

  Actual Average Record
Temperature  
Mean Temperature 76 °F -  
Max Temperature 81 °F - - ()
Min Temperature 72 °F - - ()
Cooling Degree Days 12    
Growing Degree Days 26 (Base 50)    
Moisture  
Dew Point 74 °F    
Average Humidity 88    
Maximum Humidity 94    
Minimum Humidity 75    
Precipitation  
Precipitation 0.16 in - - ()
Sea Level Pressure  
Sea Level Pressure 29.91 in    
Wind  
Wind Speed 9 mph ()    
Max Wind Speed 16 mph    
Max Gust Speed -    
Visibility 6.0 miles    
Events      
T = Trace of Precipitation, MM = Missing Value Source: Averaged Metar Reports

Daily Weather History Graph

Daily Weather History Graph

Search for Another Location

Airport:

Trip Planner

Search our weather history database for the weather conditions in past years. The results will help you decide how hot, cold, wet, or windy it might be!

Date:

Astronomy

Mar. 27, 2014 Rise Set
Actual Time 6:09 AM AEST 6:09 PM AEST
Civil Twilight 5:47 AM AEST 6:31 PM AEST
Nautical Twilight 5:22 AM AEST 6:56 PM AEST
Astronomical Twilight 4:56 AM AEST 7:22 PM AEST
Moon 2:16 AM AEST (3/27) 3:18 PM AEST (3/27)
Length of Visible Light 12h 43m
Length of Day
11h 59m
Waning Crescent, 18% of the Moon is Illuminated
Mar 27
Waning Crescent
Mar 31
New
Apr 7
First Quarter
Apr 15
Full
Apr 22
Last Quarter

Hourly Weather History & Observations

Time (AEST) Temp. Heat Index Dew Point Humidity Pressure Visibility Wind Dir Wind Speed Gust Speed Precip Events Conditions
12:00 AM 75 °F - 73 °F 92% 29.95 in - ENE 9.2 mph - -  
12:00 AM 75.2 °F - 73.4 °F 94% 29.95 in 6.2 mi ENE 9.2 mph - N/A   Unknown
12:30 AM 75.2 °F - 73.4 °F 94% 29.95 in 6.2 mi ENE 10.4 mph - N/A   Unknown
12:59 AM 75.2 °F - 73.4 °F 94% 29.92 in 3.1 mi East 5.8 mph - N/A   Unknown
1:00 AM 75.2 °F - 73.4 °F 94% 29.92 in - East 5.8 mph - N/A   Unknown
1:19 AM 75.2 °F - 73.4 °F 94% 29.92 in 6.2 mi ENE 9.2 mph - N/A   Unknown
1:30 AM 77.0 °F - 75.2 °F 94% 29.92 in 4.3 mi ENE 10.4 mph - N/A   Unknown
2:00 AM 77.0 °F - 73.4 °F 89% 29.89 in 6.2 mi NE 10.4 mph - N/A   Unknown
2:30 AM 77.0 °F - 73.4 °F 89% 29.89 in 6.2 mi East 13.8 mph - N/A   Unknown
3:00 AM 76 °F - 74 °F 91% 29.88 in - East 12.7 mph - -  
3:00 AM 77.0 °F - 73.4 °F 89% 29.89 in 6.2 mi East 12.7 mph - N/A   Unknown
3:30 AM 77.0 °F - 73.4 °F 89% 29.89 in 6.2 mi ENE 10.4 mph - N/A   Unknown
4:00 AM 75.2 °F - 73.4 °F 94% 29.89 in 6.2 mi ENE 13.8 mph - N/A   Unknown
4:30 AM 75.2 °F - 73.4 °F 94% 29.86 in 6.2 mi ENE 12.7 mph - N/A   Unknown
5:00 AM 75.2 °F - 73.4 °F 94% 29.89 in 6.2 mi ENE 15.0 mph - N/A   Unknown
5:12 AM 75.2 °F - 73.4 °F 94% 29.89 in 3.7 mi NNE 15.0 mph - N/A   Unknown
5:30 AM 75.2 °F - 73.4 °F 94% 29.89 in 6.2 mi NE 11.5 mph - N/A   Unknown
5:32 AM 75.2 °F - 73.4 °F 94% 29.89 in 6.2 mi NE 11.5 mph - N/A   Unknown
6:00 AM 76 °F - 73 °F 89% 29.89 in - NNE 11.5 mph - -  
6:00 AM 75.2 °F - 73.4 °F 94% 29.89 in 6.2 mi NNE 11.5 mph - N/A   Unknown
6:30 AM 75.2 °F - 73.4 °F 94% 29.89 in 6.2 mi NNE 10.4 mph - N/A   Unknown
7:00 AM 77.0 °F - 73.4 °F 89% 29.92 in 6.2 mi North 8.1 mph - N/A   Unknown
7:30 AM 77.0 °F - 73.4 °F 89% 29.92 in 6.2 mi NE 8.1 mph - N/A   Unknown
8:00 AM 78.8 °F - 73.4 °F 83% 29.92 in 6.2 mi NE 10.4 mph - N/A   Unknown
8:30 AM 78.8 °F - 73.4 °F 83% 29.92 in 6.2 mi NNE 9.2 mph - N/A   Unknown
9:00 AM 79 °F - 74 °F 82% 29.94 in - NE 8.1 mph - -  
9:00 AM 78.8 °F - 75.2 °F 89% 29.95 in 6.2 mi NE 8.1 mph - N/A   Unknown
9:30 AM 78.8 °F - 73.4 °F 83% 29.95 in 6.2 mi NE 6.9 mph - N/A   Unknown
9:59 AM 78.8 °F - 73.4 °F 83% 29.95 in 3.7 mi NNE 10.4 mph - N/A   Unknown
10:00 AM 78.8 °F - 73.4 °F 83% 29.95 in - NNE 10.4 mph - N/A   Unknown
10:19 AM 80.6 °F 86.2 °F 75.2 °F 84% 29.95 in 6.2 mi NNE 10.4 mph - N/A   Unknown
10:30 AM 80.6 °F 85.4 °F 73.4 °F 79% 29.95 in 6.2 mi NE 13.8 mph - N/A   Unknown
11:00 AM 80.6 °F 86.2 °F 75.2 °F 84% 29.95 in 6.2 mi NE 12.7 mph - N/A   Unknown
11:30 AM 78.8 °F - 73.4 °F 83% 29.95 in 6.2 mi NE 13.8 mph - N/A   Unknown
12:00 PM 79 °F - 75 °F 83% 29.93 in - NE 12.7 mph - -  
12:00 PM 78.8 °F - 75.2 °F 89% 29.92 in 6.2 mi NE 12.7 mph - N/A   Unknown
12:30 PM 80.6 °F 85.4 °F 73.4 °F 79% 29.92 in 6.2 mi NE 16.1 mph - N/A   Unknown
1:00 PM 78.8 °F - 73.4 °F 83% 29.89 in 6.2 mi NE 15.0 mph - N/A   Unknown
1:30 PM 78.8 °F - 73.4 °F 83% 29.89 in 6.2 mi NE 13.8 mph - N/A   Unknown
2:00 PM 80.6 °F 86.2 °F 75.2 °F 84% 29.89 in 6.2 mi NE 10.4 mph - N/A   Unknown
2:30 PM 80.6 °F 85.4 °F 73.4 °F 79% 29.86 in 6.2 mi NE 11.5 mph - N/A   Unknown
3:00 PM 81 °F - 74 °F 75% 29.86 in - NE 11.5 mph - -  
3:00 PM 80.6 °F 86.2 °F 75.2 °F 84% 29.86 in 6.2 mi NE 11.5 mph - N/A   Unknown
3:30 PM 80.6 °F 85.4 °F 73.4 °F 79% 29.86 in 6.2 mi NE 12.7 mph - N/A   Unknown
4:00 PM 80.6 °F 86.2 °F 75.2 °F 84% 29.86 in 6.2 mi NE 10.4 mph - N/A   Unknown
4:30 PM 80.6 °F 86.2 °F 75.2 °F 84% 29.86 in 6.2 mi NE 9.2 mph - N/A   Unknown
5:00 PM 78.8 °F - 75.2 °F 89% 29.89 in 6.2 mi NE 9.2 mph - N/A   Unknown
5:30 PM 78.8 °F - 73.4 °F 83% 29.89 in 6.2 mi NE 9.2 mph - N/A   Unknown
6:00 PM 78 °F - 74 °F 86% 29.90 in - NE 6.9 mph - -  
6:00 PM 78.8 °F - 75.2 °F 89% 29.89 in 6.2 mi NE 6.9 mph - N/A   Unknown
6:30 PM 77.0 °F - 75.2 °F 94% 29.92 in 6.2 mi NE 3.5 mph - N/A   Unknown
7:00 PM 77.0 °F - 75.2 °F 94% 29.92 in 6.2 mi North 4.6 mph - N/A   Unknown
7:30 PM 77.0 °F - 75.2 °F 94% 29.95 in 6.2 mi NNE 5.8 mph - N/A   Unknown
8:00 PM 77.0 °F - 75.2 °F 94% 29.95 in 6.2 mi North 2.3 mph - N/A   Unknown
8:30 PM 77.0 °F - 73.4 °F 89% 29.95 in 6.2 mi NE 5.8 mph - N/A   Unknown
9:00 PM 76 °F - 73 °F 88% 29.96 in - North 4.6 mph - -  
9:00 PM 77.0 °F - 73.4 °F 89% 29.95 in 6.2 mi North 4.6 mph - N/A   Unknown
9:30 PM 77.0 °F - 75.2 °F 94% 29.95 in 6.2 mi NE 3.5 mph - N/A   Unknown
10:00 PM 77.0 °F - 75.2 °F 94% 29.95 in 6.2 mi Calm Calm - N/A   Unknown
10:30 PM 77.0 °F - 75.2 °F 94% 29.95 in 6.2 mi North 1.2 mph - N/A   Unknown
11:00 PM 77.0 °F - 75.2 °F 94% 29.95 in 6.2 mi Calm Calm - N/A   Unknown
11:30 PM 77.0 °F - 75.2 °F 94% 29.95 in 6.2 mi NNW 3.5 mph - N/A   Unknown